| time (UTC) | temp C | wind direction | speed KPH | gust KPH | rain 1hr cm | rain 24hr cm | rain mn cm | humidity % | barometer mb |
| 20260506182432 | 16 | 112 | 3.2 | 3.2 | 0.00 | 0.00 | 0.00 | 93 | 1005.0 |
| 20260506181929 | 16 | 50 | 0.0 | 0.0 | 0.00 | 0.00 | 0.00 | 92 | 1005.0 |
| 20260506181427 | 16 | 132 | 3.2 | 3.2 | 0.00 | 0.00 | 0.00 | 92 | 1005.0 |
| 20260506180924 | 16 | 76 | 1.6 | 1.6 | 0.00 | 0.00 | 0.00 | 92 | 1005.0 |
| 20260506180420 | 16 | 24 | 1.6 | 1.6 | 0.00 | 0.00 | 0.00 | 91 | 1005.4 |
| 20260506175917 | 16 | 85 | 1.6 | 3.2 | 0.00 | 0.00 | 0.00 | 91 | 1005.1 |
| 20260506175414 | 16 | 23 | 1.6 | 1.6 | 0.00 | 0.00 | 0.00 | 91 | 1005.4 |
| 20260506174911 | 16 | 194 | 4.8 | 4.8 | 0.00 | 0.00 | 0.00 | 91 | 1005.5 |
| 20260506174408 | 17 | 128 | 1.6 | 1.6 | 0.00 | 0.00 | 0.00 | 91 | 1005.3 |
| 20260506173905 | 17 | 227 | 4.8 | 8.0 | 0.00 | 0.00 | 0.00 | 90 | 1005.2 |
| 20260506173402 | 17 | 30 | 1.6 | 3.2 | 0.00 | 0.00 | 0.00 | 91 | 1005.2 |
| 20260506172859 | 17 | 202 | 6.4 | 8.0 | 0.00 | 0.00 | 0.00 | 92 | 1005.5 |
| 20260506172355 | 17 | 213 | 4.8 | 4.8 | 0.00 | 0.00 | 0.00 | 91 | 1005.2 |
| 20260506171853 | 17 | 27 | 1.6 | 3.2 | 0.00 | 0.00 | 0.00 | 91 | 1005.1 |
| 20260506171350 | 16 | 193 | 4.8 | 4.8 | 0.00 | 0.00 | 0.00 | 90 | 1005.2 |
| 20260506170848 | 16 | 230 | 3.2 | 4.8 | 0.00 | 0.00 | 0.00 | 90 | 1005.1 |
| 20260506170344 | 16 | 321 | 3.2 | 4.8 | 0.00 | 0.00 | 0.00 | 90 | 1005.3 |
| 20260506165843 | 16 | 218 | 3.2 | 3.2 | 0.00 | 0.00 | 0.00 | 90 | 1005.5 |
| 20260506165341 | 16 | 115 | 6.4 | 8.0 | 0.00 | 0.00 | 0.00 | 90 | 1005.6 |
| 20260506164837 | 16 | 29 | 1.6 | 1.6 | 0.00 | 0.00 | 0.00 | 90 | 1005.7 |
| 20260506164333 | 16 | 2 | 3.2 | 3.2 | 0.00 | 0.00 | 0.00 | 89 | 1006.0 |
| 20260506163831 | 16 | 206 | 4.8 | 4.8 | 0.00 | 0.00 | 0.00 | 89 | 1006.2 |
| 20260506163325 | 16 | 350 | 3.2 | 3.2 | 0.00 | 0.00 | 0.00 | 88 | 1006.5 |
| 20260506162821 | 16 | 241 | 6.4 | 8.0 | 0.00 | 0.00 | 0.00 | 88 | 1006.3 |
| 20260506162320 | 16 | 239 | 1.6 | 3.2 | 0.00 | 0.00 | 0.00 | 88 | 1006.5 |
| 20260506161817 | 17 | 358 | 3.2 | 3.2 | 0.00 | 0.00 | 0.00 | 87 | 1006.4 |
| 20260506161314 | 17 | 38 | 1.6 | 1.6 | 0.00 | 0.00 | 0.00 | 86 | 1006.6 |
| 20260506160811 | 17 | 67 | 1.6 | 1.6 | 0.00 | 0.00 | 0.00 | 85 | 1006.8 |
| 20260506160308 | 17 | 328 | 1.6 | 1.6 | 0.00 | 0.00 | 0.00 | 82 | 1006.8 |
| 20260506155807 | 18 | 231 | 8.0 | 11.3 | 0.00 | 0.00 | 0.00 | 81 | 1006.7 |
| 20260506155306 | 18 | 179 | 4.8 | 4.8 | 0.00 | 0.00 | 0.00 | 80 | 1006.8 |
| 20260506153415 | 19 | 143 | 3.2 | 3.2 | 0.00 | 0.00 | 0.00 | 76 | 1006.7 |
| 20260506152913 | 19 | 214 | 8.0 | 9.7 | 0.00 | 0.00 | 0.00 | 75 | 1006.6 |
| 20260506152410 | 19 | 213 | 8.0 | 11.3 | 0.00 | 0.00 | 0.00 | 75 | 1006.4 |
| 20260506151908 | 19 | 266 | 3.2 | 4.8 | 0.00 | 0.00 | 0.00 | 74 | 1006.5 |
| 20260506151405 | 19 | 216 | 6.4 | 8.0 | 0.00 | 0.00 | 0.00 | 74 | 1006.6 |
| 20260506150902 | 19 | 212 | 4.8 | 4.8 | 0.00 | 0.00 | 0.00 | 74 | 1006.6 |
| 20260506150358 | 19 | 236 | 8.0 | 11.3 | 0.00 | 0.00 | 0.00 | 73 | 1006.8 |
| 20260506145855 | 19 | 222 | 4.8 | 8.0 | 0.00 | 0.00 | 0.00 | 73 | 1006.9 |
| 20260506145351 | 20 | 298 | 4.8 | 8.0 | 0.00 | 0.00 | 0.00 | 71 | 1006.9 |
| 20260506144849 | 20 | 231 | 8.0 | 12.9 | 0.00 | 0.00 | 0.00 | 71 | 1006.9 |
| 20260506144345 | 20 | 222 | 8.0 | 9.7 | 0.00 | 0.00 | 0.00 | 71 | 1006.8 |
| 20260506143844 | 20 | 220 | 4.8 | 4.8 | 0.00 | 0.00 | 0.00 | 72 | 1006.6 |
| 20260506143341 | 20 | 227 | 6.4 | 8.0 | 0.00 | 0.00 | 0.00 | 71 | 1006.7 |
| 20260506142839 | 20 | 218 | 11.3 | 20.9 | 0.00 | 0.00 | 0.00 | 72 | 1007.1 |
| 20260506142337 | 20 | 295 | 4.8 | 4.8 | 0.00 | 0.00 | 0.00 | 71 | 1006.7 |
| 20260506141835 | 19 | 214 | 9.7 | 9.7 | 0.00 | 0.00 | 0.00 | 73 | 1006.6 |
| 20260506141333 | 19 | 193 | 6.4 | 8.0 | 0.00 | 0.00 | 0.00 | 73 | 1006.8 |
| 20260506140830 | 19 | 218 | 3.2 | 3.2 | 0.00 | 0.00 | 0.00 | 73 | 1006.7 |
| 20260506140327 | 18 | 222 | 4.8 | 4.8 | 0.00 | 0.00 | 0.00 | 73 | 1006.9 |
| 20260506135824 | 19 | 235 | 3.2 | 4.8 | 0.00 | 0.00 | 0.00 | 73 | 1006.8 |
| 20260506135320 | 19 | 20 | 3.2 | 3.2 | 0.00 | 0.00 | 0.00 | 74 | 1006.9 |
| 20260506134817 | 19 | 238 | 8.0 | 11.3 | 0.00 | 0.00 | 0.00 | 73 | 1006.8 |
| 20260506134313 | 19 | 217 | 8.0 | 14.5 | 0.00 | 0.00 | 0.00 | 73 | 1006.8 |
| 20260506133810 | 19 | 211 | 6.4 | 8.0 | 0.00 | 0.00 | 0.00 | 73 | 1006.9 |
| 20260506133307 | 19 | 212 | 11.3 | 14.5 | 0.00 | 0.00 | 0.00 | 73 | 1007.0 |
| 20260506132804 | 19 | 202 | 11.3 | 12.9 | 0.00 | 0.00 | 0.00 | 73 | 1007.0 |
| 20260506132301 | 19 | 240 | 3.2 | 3.2 | 0.00 | 0.00 | 0.00 | 74 | 1006.9 |
| 20260506131759 | 19 | 219 | 8.0 | 9.7 | 0.00 | 0.00 | 0.00 | 74 | 1006.9 |
| 20260506131254 | 18 | 221 | 8.0 | 11.3 | 0.00 | 0.00 | 0.00 | 74 | 1006.8 |
| 20260506130752 | 18 | 214 | 8.0 | 8.0 | 0.00 | 0.00 | 0.00 | 74 | 1007.2 |
| 20260506130249 | 18 | 238 | 8.0 | 11.3 | 0.00 | 0.00 | 0.00 | 74 | 1006.9 |
| 20260506125747 | 18 | 214 | 6.4 | 9.7 | 0.00 | 0.00 | 0.00 | 74 | 1006.8 |
| 20260506125244 | 18 | 228 | 6.4 | 9.7 | 0.00 | 0.00 | 0.00 | 74 | 1006.7 |
| 20260506124743 | 18 | 186 | 8.0 | 12.9 | 0.00 | 0.00 | 0.00 | 74 | 1006.7 |
| 20260506124240 | 18 | 222 | 4.8 | 8.0 | 0.00 | 0.00 | 0.00 | 75 | 1006.5 |
| 20260506123737 | 18 | 214 | 4.8 | 8.0 | 0.00 | 0.00 | 0.00 | 74 | 1006.4 |
| 20260506123236 | 18 | 188 | 8.0 | 11.3 | 0.00 | 0.00 | 0.00 | 74 | 1006.6 |
| 20260506122732 | 18 | 205 | 3.2 | 4.8 | 0.00 | 0.00 | 0.00 | 76 | 1006.6 |
| 20260506122229 | 18 | 306 | 4.8 | 4.8 | 0.00 | 0.00 | 0.00 | 76 | 1006.8 |
| 20260506121728 | 18 | 199 | 8.0 | 9.7 | 0.00 | 0.00 | 0.00 | 77 | 1006.8 |
| 20260506121224 | 17 | 200 | 4.8 | 8.0 | 0.00 | 0.00 | 0.00 | 77 | 1007.1 |
| 20260506120722 | 17 | 340 | 3.2 | 3.2 | 0.00 | 0.00 | 0.00 | 78 | 1006.9 |
| 20260506120219 | 17 | 205 | 4.8 | 8.0 | 0.00 | 0.00 | 0.00 | 77 | 1007.1 |
| 20260506115717 | 17 | 122 | 4.8 | 4.8 | 0.00 | 0.00 | 0.00 | 78 | 1006.9 |
| 20260506115215 | 17 | 207 | 3.2 | 4.8 | 0.00 | 0.00 | 0.00 | 78 | 1007.2 |
| 20260506114712 | 18 | 292 | 4.8 | 8.0 | 0.00 | 0.00 | 0.00 | 78 | 1007.2 |
| 20260506114210 | 17 | 230 | 6.4 | 8.0 | 0.00 | 0.00 | 0.00 | 77 | 1007.2 |
| 20260506113708 | 17 | 192 | 9.7 | 14.5 | 0.00 | 0.00 | 0.00 | 78 | 1007.2 |
| 20260506113205 | 17 | 218 | 4.8 | 4.8 | 0.00 | 0.00 | 0.00 | 78 | 1006.9 |
| 20260506112701 | 17 | 246 | 6.4 | 9.7 | 0.00 | 0.00 | 0.00 | 79 | 1007.2 |
| 20260506112159 | 17 | 227 | 4.8 | 4.8 | 0.00 | 0.00 | 0.00 | 79 | 1007.4 |
| 20260506111656 | 17 | 213 | 6.4 | 11.3 | 0.00 | 0.00 | 0.00 | 79 | 1007.1 |
| 20260506111154 | 17 | 203 | 8.0 | 11.3 | 0.00 | 0.00 | 0.00 | 80 | 1007.0 |
| 20260506110651 | 17 | 221 | 4.8 | 8.0 | 0.00 | 0.00 | 0.00 | 80 | 1007.1 |
| 20260506110148 | 17 | 229 | 4.8 | 4.8 | 0.00 | 0.00 | 0.00 | 80 | 1006.8 |
| 20260506105645 | 17 | 228 | 4.8 | 8.0 | 0.00 | 0.00 | 0.00 | 80 | 1006.8 |
| 20260506105141 | 17 | 260 | 6.4 | 9.7 | 0.00 | 0.00 | 0.00 | 81 | 1007.0 |
| 20260506104640 | 17 | 250 | 4.8 | 8.0 | 0.00 | 0.00 | 0.00 | 81 | 1006.8 |
| 20260506104137 | 17 | 200 | 8.0 | 11.3 | 0.00 | 0.00 | 0.00 | 80 | 1006.9 |
| 20260506103634 | 17 | 209 | 6.4 | 8.0 | 0.00 | 0.00 | 0.00 | 80 | 1006.8 |
| 20260506103131 | 17 | 256 | 4.8 | 4.8 | 0.00 | 0.00 | 0.00 | 80 | 1006.7 |
| 20260506102629 | 17 | 237 | 9.7 | 12.9 | 0.00 | 0.00 | 0.00 | 80 | 1007.2 |
| 20260506102126 | 17 | 220 | 11.3 | 12.9 | 0.00 | 0.00 | 0.00 | 81 | 1006.7 |
| 20260506101623 | 17 | 223 | 9.7 | 11.3 | 0.00 | 0.00 | 0.00 | 80 | 1007.0 |
| 20260506101120 | 17 | 328 | 4.8 | 4.8 | 0.00 | 0.00 | 0.00 | 80 | 1006.8 |
| 20260506100619 | 17 | 182 | 4.8 | 4.8 | 0.00 | 0.00 | 0.00 | 81 | 1006.7 |
| 20260506100116 | 17 | 241 | 8.0 | 9.7 | 0.00 | 0.00 | 0.00 | 80 | 1006.7 |
| 20260506095615 | 17 | 204 | 1.6 | 3.2 | 0.00 | 0.00 | 0.00 | 80 | 1006.6 |
| 20260506095111 | 17 | 229 | 8.0 | 11.3 | 0.00 | 0.00 | 0.00 | 80 | 1006.6 |
| 20260506094608 | 17 | 184 | 6.4 | 9.7 | 0.00 | 0.00 | 0.00 | 80 | 1006.7 |
| 20260506094106 | 17 | 237 | 3.2 | 4.8 | 0.00 | 0.00 | 0.00 | 80 | 1006.7 |
| 20260506093604 | 17 | 231 | 8.0 | 12.9 | 0.00 | 0.00 | 0.00 | 81 | 1006.7 |
| 20260506093101 | 17 | 156 | 4.8 | 4.8 | 0.00 | 0.00 | 0.00 | 81 | 1006.7 |
| 20260506092559 | 17 | 217 | 6.4 | 8.0 | 0.00 | 0.00 | 0.00 | 81 | 1006.7 |
| 20260506092055 | 17 | 215 | 8.0 | 9.7 | 0.00 | 0.00 | 0.00 | 81 | 1006.6 |
| 20260506091554 | 17 | 213 | 4.8 | 4.8 | 0.00 | 0.00 | 0.00 | 81 | 1006.8 |
| 20260506091051 | 17 | 218 | 8.0 | 11.3 | 0.00 | 0.00 | 0.00 | 81 | 1006.7 |
| 20260506090549 | 17 | 204 | 8.0 | 9.7 | 0.00 | 0.00 | 0.00 | 81 | 1007.0 |
| 20260506090044 | 17 | 279 | 4.8 | 4.8 | 0.00 | 0.00 | 0.00 | 81 | 1006.8 |
| 20260506085542 | 17 | 233 | 3.2 | 8.0 | 0.00 | 0.00 | 0.00 | 81 | 1006.9 |
| 20260506085038 | 17 | 222 | 6.4 | 8.0 | 0.00 | 0.00 | 0.00 | 81 | 1006.8 |
| 20260506084535 | 17 | 137 | 3.2 | 3.2 | 0.00 | 0.00 | 0.00 | 81 | 1006.9 |
| 20260506084031 | 17 | 180 | 3.2 | 4.8 | 0.00 | 0.00 | 0.00 | 80 | 1006.9 |
| 20260506083529 | 17 | 280 | 4.8 | 8.0 | 0.00 | 0.00 | 0.00 | 80 | 1006.9 |
| 20260506083026 | 17 | 227 | 3.2 | 3.2 | 0.00 | 0.00 | 0.00 | 80 | 1007.0 |
| 20260506082523 | 17 | 228 | 4.8 | 4.8 | 0.00 | 0.00 | 0.00 | 80 | 1006.9 |
| 20260506082018 | 17 | 220 | 6.4 | 9.7 | 0.00 | 0.00 | 0.00 | 79 | 1007.0 |
| 20260506081517 | 17 | 228 | 6.4 | 8.0 | 0.00 | 0.00 | 0.00 | 80 | 1007.1 |
| 20260506081014 | 17 | 220 | 6.4 | 8.0 | 0.00 | 0.00 | 0.00 | 79 | 1006.9 |
| 20260506080511 | 17 | 225 | 4.8 | 4.8 | 0.00 | 0.00 | 0.00 | 79 | 1007.0 |
| 20260506073455 | 17 | 213 | 4.8 | 8.0 | 0.00 | 0.00 | 0.00 | 78 | 1007.1 |
| 20260506072952 | 17 | 227 | 8.0 | 9.7 | 0.00 | 0.00 | 0.00 | 78 | 1006.8 |
| 20260506072449 | 17 | 238 | 4.8 | 8.0 | 0.00 | 0.00 | 0.00 | 78 | 1007.2 |
| 20260506071947 | 17 | 213 | 8.0 | 9.7 | 0.00 | 0.00 | 0.00 | 78 | 1007.2 |
| 20260506071445 | 17 | 233 | 6.4 | 8.0 | 0.00 | 0.00 | 0.00 | 77 | 1007.3 |
| 20260506070941 | 18 | 311 | 4.8 | 4.8 | 0.00 | 0.00 | 0.00 | 77 | 1007.1 |
| 20260506070438 | 18 | 226 | 8.0 | 9.7 | 0.00 | 0.00 | 0.00 | 77 | 1007.1 |
| 20260506062416 | 18 | 200 | 6.4 | 8.0 | 0.00 | 0.00 | 0.00 | 74 | 1007.2 |
| 20260506061912 | 18 | 234 | 6.4 | 8.0 | 0.00 | 0.00 | 0.00 | 74 | 1007.3 |
| 20260506061408 | 18 | 257 | 6.4 | 8.0 | 0.00 | 0.00 | 0.00 | 74 | 1007.3 |
| 20260506060906 | 18 | 231 | 6.4 | 8.0 | 0.00 | 0.00 | 0.00 | 74 | 1007.3 |
| 20260506060404 | 18 | 214 | 8.0 | 11.3 | 0.00 | 0.00 | 0.00 | 73 | 1007.4 |
| 20260506051336 | 18 | 193 | 3.2 | 3.2 | 0.00 | 0.00 | 0.00 | 71 | 1007.9 |
| 20260506050833 | 18 | 234 | 4.8 | 4.8 | 0.00 | 0.00 | 0.00 | 71 | 1007.8 |
| 20260506050331 | 18 | 226 | 6.4 | 8.0 | 0.00 | 0.00 | 0.00 | 71 | 1008.0 |
| 20260506044821 | 18 | 208 | 4.8 | 4.8 | 0.00 | 0.00 | 0.00 | 70 | 1008.0 |
| 20260506044319 | 18 | 229 | 8.0 | 9.7 | 0.00 | 0.00 | 0.00 | 69 | 1007.9 |
| 20260506043816 | 18 | 192 | 4.8 | 4.8 | 0.00 | 0.00 | 0.00 | 69 | 1007.6 |
| 20260506043313 | 18 | 219 | 4.8 | 4.8 | 0.00 | 0.00 | 0.00 | 69 | 1007.8 |
| 20260506042812 | 18 | 276 | 4.8 | 4.8 | 0.00 | 0.00 | 0.00 | 69 | 1007.7 |
| 20260506042310 | 18 | 213 | 4.8 | 4.8 | 0.00 | 0.00 | 0.00 | 68 | 1007.9 |
| 20260506041808 | 19 | 238 | 3.2 | 4.8 | 0.00 | 0.00 | 0.00 | 68 | 1008.0 |
| 20260506041305 | 18 | 215 | 6.4 | 8.0 | 0.00 | 0.00 | 0.00 | 68 | 1007.7 |
| 20260506040802 | 18 | 233 | 4.8 | 8.0 | 0.00 | 0.00 | 0.00 | 68 | 1007.9 |
| 20260506040259 | 19 | 232 | 9.7 | 11.3 | 0.00 | 0.00 | 0.00 | 67 | 1007.7 |
| 20260506035756 | 19 | 217 | 4.8 | 4.8 | 0.00 | 0.00 | 0.00 | 67 | 1007.8 |
| 20260506035253 | 19 | 210 | 4.8 | 8.0 | 0.00 | 0.00 | 0.00 | 67 | 1007.7 |
| 20260506034750 | 19 | 223 | 4.8 | 4.8 | 0.00 | 0.00 | 0.00 | 66 | 1007.7 |
| 20260506034248 | 19 | 202 | 8.0 | 8.0 | 0.00 | 0.00 | 0.00 | 66 | 1007.8 |
| 20260506033744 | 19 | 204 | 6.4 | 8.0 | 0.00 | 0.00 | 0.00 | 66 | 1007.7 |
| 20260506033241 | 19 | 193 | 6.4 | 9.7 | 0.00 | 0.00 | 0.00 | 65 | 1007.9 |
| 20260506032738 | 19 | 211 | 4.8 | 4.8 | 0.00 | 0.00 | 0.00 | 65 | 1007.9 |
| 20260506032235 | 19 | 217 | 8.0 | 11.3 | 0.00 | 0.00 | 0.00 | 65 | 1007.8 |
| 20260506031732 | 19 | 213 | 4.8 | 8.0 | 0.00 | 0.00 | 0.00 | 65 | 1007.7 |
| 20260506031229 | 20 | 260 | 4.8 | 4.8 | 0.00 | 0.00 | 0.00 | 64 | 1007.8 |
| 20260506030727 | 20 | 223 | 8.0 | 12.9 | 0.00 | 0.00 | 0.00 | 64 | 1008.0 |
| 20260506030225 | 20 | 210 | 6.4 | 11.3 | 0.00 | 0.00 | 0.00 | 64 | 1007.9 |
| 20260506025721 | 20 | 220 | 6.4 | 8.0 | 0.00 | 0.00 | 0.00 | 64 | 1007.8 |
| 20260506025217 | 20 | 295 | 4.8 | 8.0 | 0.00 | 0.00 | 0.00 | 64 | 1007.7 |
| 20260506024714 | 20 | 279 | 8.0 | 11.3 | 0.00 | 0.00 | 0.00 | 63 | 1007.7 |
| 20260506024211 | 20 | 255 | 8.0 | 9.7 | 0.00 | 0.00 | 0.00 | 63 | 1007.7 |
| 20260506023708 | 20 | 355 | 3.2 | 3.2 | 0.00 | 0.00 | 0.00 | 63 | 1007.9 |
| 20260506023205 | 20 | 200 | 8.0 | 9.7 | 0.00 | 0.00 | 0.00 | 63 | 1007.9 |
| 20260506022702 | 20 | 227 | 9.7 | 11.3 | 0.00 | 0.00 | 0.00 | 62 | 1007.7 |
| 20260506022159 | 20 | 268 | 12.9 | 14.5 | 0.00 | 0.00 | 0.00 | 61 | 1007.9 |
| 20260506021657 | 21 | 288 | 3.2 | 3.2 | 0.00 | 0.00 | 0.00 | 60 | 1007.6 |
| 20260506021154 | 21 | 239 | 6.4 | 8.0 | 0.00 | 0.00 | 0.00 | 59 | 1007.8 |
| 20260506020651 | 21 | 198 | 6.4 | 9.7 | 0.00 | 0.00 | 0.00 | 58 | 1007.6 |
| 20260506020148 | 21 | 145 | 4.8 | 4.8 | 0.00 | 0.00 | 0.00 | 57 | 1007.5 |
| 20260506015646 | 21 | 19 | 1.6 | 3.2 | 0.00 | 0.00 | 0.00 | 57 | 1007.7 |
| 20260506015143 | 21 | 226 | 4.8 | 4.8 | 0.00 | 0.00 | 0.00 | 56 | 1007.4 |
| 20260506014641 | 21 | 316 | 4.8 | 4.8 | 0.00 | 0.00 | 0.00 | 55 | 1007.3 |
| 20260506014136 | 22 | 218 | 8.0 | 9.7 | 0.00 | 0.00 | 0.00 | 54 | 1007.6 |
| 20260506013634 | 22 | 217 | 9.7 | 11.3 | 0.00 | 0.00 | 0.00 | 54 | 1007.5 |
| 20260506013131 | 22 | 211 | 6.4 | 8.0 | 0.00 | 0.00 | 0.00 | 52 | 1007.2 |
| 20260506012627 | 22 | 210 | 6.4 | 9.7 | 0.00 | 0.00 | 0.00 | 52 | 1007.3 |
| 20260506012124 | 22 | 223 | 6.4 | 9.7 | 0.00 | 0.00 | 0.00 | 51 | 1007.3 |
| 20260506011622 | 22 | 230 | 6.4 | 8.0 | 0.00 | 0.00 | 0.00 | 50 | 1007.1 |
| 20260506011118 | 22 | 221 | 9.7 | 12.9 | 0.00 | 0.00 | 0.00 | 48 | 1007.2 |
| 20260506010617 | 22 | 160 | 4.8 | 8.0 | 0.00 | 0.00 | 0.00 | 47 | 1007.1 |
| 20260506010402 | 23 | 218 | 4.8 | 4.8 | 0.00 | 0.00 | 0.00 | 47 | 1007.0 |
| 20260506005858 | 23 | 220 | 8.0 | 12.9 | 0.00 | 0.00 | 0.00 | 46 | 1007.2 |
| 20260506005355 | 23 | 308 | 3.2 | 3.2 | 0.00 | 0.00 | 0.00 | 46 | 1006.7 |
| 20260506004851 | 23 | 2 | 3.2 | 3.2 | 0.00 | 0.00 | 0.00 | 46 | 1006.7 |
| 20260506004349 | 23 | 191 | 6.4 | 8.0 | 0.00 | 0.00 | 0.00 | 46 | 1006.7 |
| 20260506003844 | 23 | 352 | 1.6 | 1.6 | 0.00 | 0.00 | 0.00 | 45 | 1006.6 |
| 20260506003341 | 23 | 185 | 3.2 | 3.2 | 0.00 | 0.00 | 0.00 | 45 | 1006.6 |
| 20260506002838 | 23 | 211 | 6.4 | 8.0 | 0.00 | 0.00 | 0.00 | 45 | 1006.7 |
| 20260506002334 | 23 | 291 | 6.4 | 9.7 | 0.00 | 0.00 | 0.00 | 44 | 1006.7 |
| 20260506001829 | 23 | 217 | 4.8 | 8.0 | 0.00 | 0.00 | 0.00 | 44 | 1006.5 |
| 20260506001327 | 24 | 211 | 6.4 | 8.0 | 0.00 | 0.00 | 0.00 | 43 | 1006.6 |
| 20260506000824 | 24 | 195 | 4.8 | 4.8 | 0.00 | 0.00 | 0.00 | 43 | 1006.3 |
| 20260506000323 | 24 | 276 | 8.0 | 11.3 | 0.00 | 0.00 | 0.00 | 42 | 1006.3 |
| 20260505235818 | 24 | 227 | 6.4 | 9.7 | 0.00 | 0.00 | 0.00 | 41 | 1006.5 |
| 20260505235316 | 24 | 213 | 6.4 | 8.0 | 0.00 | 0.00 | 0.00 | 41 | 1006.3 |
| 20260505234813 | 25 | 213 | 8.0 | 11.3 | 0.00 | 0.00 | 0.00 | 40 | 1006.3 |
| 20260505234310 | 25 | 216 | 4.8 | 4.8 | 0.00 | 0.00 | 0.00 | 39 | 1006.2 |
| 20260505233807 | 25 | 203 | 9.7 | 12.9 | 0.00 | 0.00 | 0.00 | 38 | 1006.2 |
| 20260505233305 | 25 | 354 | 3.2 | 4.8 | 0.00 | 0.00 | 0.00 | 38 | 1006.2 |
| 20260505232802 | 25 | 236 | 4.8 | 4.8 | 0.00 | 0.00 | 0.00 | 37 | 1005.9 |
| 20260505232259 | 25 | 224 | 11.3 | 12.9 | 0.00 | 0.00 | 0.00 | 36 | 1006.1 |
| 20260505231755 | 25 | 216 | 8.0 | 9.7 | 0.00 | 0.00 | 0.00 | 36 | 1006.0 |
| 20260505231254 | 25 | 242 | 4.8 | 4.8 | 0.00 | 0.00 | 0.00 | 35 | 1005.9 |
| 20260505230752 | 25 | 198 | 6.4 | 8.0 | 0.00 | 0.00 | 0.00 | 35 | 1005.7 |
| 20260505230249 | 25 | 286 | 4.8 | 4.8 | 0.00 | 0.00 | 0.00 | 36 | 1005.8 |
| 20260505225745 | 25 | 224 | 6.4 | 9.7 | 0.00 | 0.00 | 0.00 | 36 | 1005.5 |
| 20260505225243 | 25 | 204 | 8.0 | 9.7 | 0.00 | 0.00 | 0.00 | 35 | 1005.8 |
| 20260505224737 | 25 | 223 | 6.4 | 9.7 | 0.00 | 0.00 | 0.00 | 35 | 1005.6 |
| 20260505224235 | 25 | 209 | 6.4 | 8.0 | 0.00 | 0.00 | 0.00 | 36 | 1005.5 |
| 20260505223733 | 25 | 222 | 3.2 | 3.2 | 0.00 | 0.00 | 0.00 | 34 | 1005.5 |
| 20260505223229 | 25 | 229 | 11.3 | 16.1 | 0.00 | 0.00 | 0.00 | 33 | 1005.4 |
| 20260505222725 | 25 | 271 | 12.9 | 16.1 | 0.00 | 0.00 | 0.00 | 33 | 1005.8 |
| 20260505222221 | 25 | 32 | 1.6 | 1.6 | 0.00 | 0.00 | 0.00 | 33 | 1005.9 |
| 20260505221719 | 26 | 39 | 1.6 | 3.2 | 0.00 | 0.00 | 0.00 | 33 | 1005.6 |
| 20260505221215 | 26 | 193 | 4.8 | 4.8 | 0.00 | 0.00 | 0.00 | 33 | 1005.7 |
| 20260505220712 | 26 | 232 | 6.4 | 8.0 | 0.00 | 0.00 | 0.00 | 31 | 1005.5 |
| 20260505220210 | 26 | 227 | 14.5 | 17.7 | 0.00 | 0.00 | 0.00 | 31 | 1005.7 |
| 20260505215708 | 26 | 210 | 8.0 | 14.5 | 0.00 | 0.00 | 0.00 | 31 | 1005.5 |
| 20260505215205 | 26 | 227 | 11.3 | 14.5 | 0.00 | 0.00 | 0.00 | 31 | 1005.3 |
| 20260505214703 | 26 | 336 | 4.8 | 8.0 | 0.00 | 0.00 | 0.00 | 31 | 1005.3 |
| 20260505214200 | 26 | 219 | 8.0 | 11.3 | 0.00 | 0.00 | 0.00 | 32 | 1005.3 |
| 20260505213657 | 27 | 247 | 3.2 | 3.2 | 0.00 | 0.00 | 0.00 | 31 | 1005.1 |
| 20260505213154 | 27 | 210 | 12.9 | 14.5 | 0.00 | 0.00 | 0.00 | 31 | 1005.1 |
| 20260505212650 | 27 | 205 | 4.8 | 8.0 | 0.00 | 0.00 | 0.00 | 31 | 1005.2 |
| 20260505212148 | 27 | 5 | 1.6 | 1.6 | 0.00 | 0.00 | 0.00 | 30 | 1005.0 |
| 20260505211644 | 27 | 275 | 6.4 | 11.3 | 0.00 | 0.00 | 0.00 | 30 | 1005.0 |
| 20260505211142 | 27 | 226 | 11.3 | 12.9 | 0.00 | 0.00 | 0.00 | 31 | 1005.2 |
| 20260505210638 | 26 | 208 | 4.8 | 4.8 | 0.00 | 0.00 | 0.00 | 31 | 1005.1 |
| 20260505210135 | 26 | 325 | 6.4 | 9.7 | 0.00 | 0.00 | 0.00 | 32 | 1004.9 |
| 20260505205632 | 26 | 296 | 6.4 | 8.0 | 0.00 | 0.00 | 0.00 | 33 | 1005.2 |
| 20260505205131 | 26 | 239 | 4.8 | 8.0 | 0.00 | 0.00 | 0.00 | 33 | 1005.0 |
| 20260505204627 | 26 | 248 | 11.3 | 12.9 | 0.00 | 0.00 | 0.00 | 32 | 1005.1 |
| 20260505204125 | 27 | 230 | 17.7 | 22.5 | 0.00 | 0.00 | 0.00 | 33 | 1005.0 |
| 20260505203621 | 27 | 291 | 3.2 | 3.2 | 0.00 | 0.00 | 0.00 | 34 | 1005.0 |
| 20260505203119 | 27 | 172 | 4.8 | 4.8 | 0.00 | 0.00 | 0.00 | 34 | 1004.9 |
| 20260505202614 | 27 | 219 | 11.3 | 16.1 | 0.00 | 0.00 | 0.00 | 33 | 1005.3 |
| 20260505202110 | 27 | 217 | 6.4 | 8.0 | 0.00 | 0.00 | 0.00 | 35 | 1005.1 |
| 20260505201607 | 27 | 214 | 9.7 | 11.3 | 0.00 | 0.00 | 0.00 | 33 | 1005.0 |
| 20260505201105 | 27 | 216 | 9.7 | 12.9 | 0.00 | 0.00 | 0.00 | 36 | 1004.9 |
| 20260505200603 | 27 | 315 | 11.3 | 12.9 | 0.00 | 0.00 | 0.00 | 34 | 1005.0 |
| 20260505200059 | 27 | 227 | 17.7 | 24.1 | 0.00 | 0.00 | 0.00 | 34 | 1005.2 |
| 20260505195555 | 27 | 216 | 9.7 | 11.3 | 0.00 | 0.00 | 0.00 | 35 | 1005.0 |
| 20260505195053 | 27 | 210 | 9.7 | 12.9 | 0.00 | 0.00 | 0.00 | 35 | 1005.4 |
| 20260505194550 | 27 | 204 | 9.7 | 11.3 | 0.00 | 0.00 | 0.00 | 34 | 1005.4 |
| 20260505194045 | 27 | 324 | 6.4 | 9.7 | 0.00 | 0.00 | 0.00 | 35 | 1005.3 |
| 20260505193543 | 27 | 221 | 9.7 | 12.9 | 0.00 | 0.00 | 0.00 | 34 | 1005.6 |
| 20260505193040 | 27 | 226 | 4.8 | 8.0 | 0.00 | 0.00 | 0.00 | 35 | 1005.5 |
| 20260505192539 | 27 | 232 | 9.7 | 14.5 | 0.00 | 0.00 | 0.00 | 35 | 1005.7 |
| 20260505192036 | 27 | 289 | 6.4 | 11.3 | 0.00 | 0.00 | 0.00 | 36 | 1005.7 |
| 20260505191534 | 27 | 217 | 12.9 | 16.1 | 0.00 | 0.00 | 0.00 | 35 | 1006.0 |
| 20260505191031 | 27 | 287 | 3.2 | 3.2 | 0.00 | 0.00 | 0.00 | 36 | 1005.8 |
| 20260505190526 | 27 | 215 | 9.7 | 12.9 | 0.00 | 0.00 | 0.00 | 37 | 1006.0 |
| 20260505190022 | 27 | 305 | 4.8 | 9.7 | 0.00 | 0.00 | 0.00 | 40 | 1006.1 |
| 20260505185519 | 26 | 220 | 12.9 | 16.1 | 0.00 | 0.00 | 0.00 | 37 | 1005.9 |
| 20260505185015 | 27 | 207 | 16.1 | 22.5 | 0.00 | 0.00 | 0.00 | 38 | 1005.9 |
| 20260505184513 | 27 | 222 | 14.5 | 17.7 | 0.00 | 0.00 | 0.00 | 36 | 1006.2 |
| 20260505184009 | 27 | 352 | 4.8 | 8.0 | 0.00 | 0.00 | 0.00 | 39 | 1006.3 |
| 20260505183506 | 27 | 282 | 8.0 | 9.7 | 0.00 | 0.00 | 0.00 | 36 | 1006.4 |
| 20260505183003 | 27 | 219 | 8.0 | 12.9 | 0.00 | 0.00 | 0.00 | 39 | 1006.3 |